Regional Weather Roundup
Issued by NWS

Home | Current Version | Previous Version | Text Only | Print | Product List | Glossary Off
Versions: 1 2 3 4 5 6 7 8 9 10 11 12 13 14 15 16 17 18 19 20 21 22 23 24 25 26 27 28 29 30 31 32 33 34 35 36 37 38 39 40 41 42 43 44 45 46 47 48 49 50

000
ASUS43 KLOT 061703
RWRIL

ILLINOIS REGIONAL WEATHER ROUNDUP
NATIONAL WEATHER SERVICE CHICAGO/ROMEOVILLE IL
1200 PM CDT FRI MAY 06 2016

NOTE: "FAIR" INDICATES FEW OR NO CLOUDS BELOW 12,000 FEET WITH NO
SIGNIFICANT WEATHER AND/OR OBSTRUCTIONS TO VISIBILITY.

* THESE STATIONS ARE NOT UNDER NWS QUALITY CONTROL. THEY ALSO MAY NOT
  REPORT WEATHER SUCH AS PRECIPITATION OR FOG.

ILZ001-002-007-009-015-016-024-061800-
NORTHWEST ILLINOIS

CITY           SKY/WX    TMP DP  RH WIND       PRES   REMARKS
MOLINE         SUNNY     76  46  34 NW8       29.98F
STERLING*      SUNNY     73  48  40 SW10      29.95F
$$

ILZ003-004-008-010-011-017-018-061800-
NORTH CENTRAL ILLINOIS

CITY           SKY/WX    TMP DP  RH WIND       PRES   REMARKS
ROCKFORD       MOSUNNY   74  48  39 SW7       29.95F
FREEPORT*      SUNNY     73  49  42 W12       29.96S
ROCHELLE*      SUNNY     73  48  42 W10G18    29.94F
DE KALB*       SUNNY     73  46  38 W12       29.95F
$$

ILZ005-006-012>014-019>023-061800-
NORTHEAST ILLINOIS

CITY           SKY/WX    TMP DP  RH WIND       PRES   REMARKS
CHICAGO-OHARE  MOSUNNY   71  40  32 SW9       29.94F
CHICAGO-MIDWAY PTSUNNY   69  41  36 S10       29.96F
AURORA         MOSUNNY   73  46  38 SW13G18   29.95F
LANSING*       SUNNY     69  40  34 W10       29.98F
WAUKEGAN       SUNNY     73  43  33 SW8       29.92F
DUPAGE AIRPORT SUNNY     72  43  35 SW9       29.94F
WHEELING       MOSUNNY   72  39  30 S12       29.95F
NORTHERLY ISL    N/A     69  37  30 S9          N/A
NORTHERLY ISL    N/A     69  37  30 S9          N/A
$$

LMZ740>746-061800-
SOUTHERN LAKE MICHIGAN

STATION/POSITION SKY/WX   TEMP    WIND        PRES    VSBY  WAVE
                          AIR SEA DIR/SP/G                  HT/PER
                          (F)     (DEG/KT/KT) (MB)    (MI)  (FT/S)
SOUTHERN BUOY              44 41  160/ 10/ 12 1014.1F         0
WILMETTE HARBOR            55 44  220/  2/  4   N/A           1/ 4
HARRISON CRIB              65     200/  4/  4   N/A
BURNHAM HARBOR             70     250/  7/ 12   N/A
CALUMET HARBOR             69     250/  5/ 12 1014.8F
BURNS HARBOR               61     290/  2/  2 1016.3F
MICHIGAN CITY              59     220/ 10/ 10   N/A
ST. JOSEPH                 51                   N/A           1
$$

ILZ025>027-034>036-040-047-049-050-058-095>099-061800-
WEST-CENTRAL ILLINOIS

CITY           SKY/WX    TMP DP  RH WIND       PRES   REMARKS
QUINCY         SUNNY     72  45  37 W6        30.04F
MACOMB*        SUNNY     74  42  32 W9        30.04S
PITTSFIELD*    SUNNY     72  44  36 W9        30.06F
$$

ILZ028>032-037-038-041>044-048-051>054-059>061-061800-
CENTRAL ILLINOIS

CITY           SKY/WX    TMP DP  RH WIND       PRES   REMARKS
BLOOMINGTON    MOSUNNY   70  42  36 W8        30.03F
DECATUR        SUNNY     69  40  34 W6        30.03F
PEORIA         SUNNY     73  42  32 W8        30.00F
SPRINGFIELD    SUNNY     75  37  25 NW9       30.03F
TAYLORVILLE    NOT AVBL
$$

ILZ033-039-045-046-055>057-062-063-061800-
EAST-CENTRAL ILLINOIS

CITY           SKY/WX    TMP DP  RH WIND       PRES   REMARKS
CHAMPAIGN      SUNNY     70  37  29 W13       30.02F
MATTOON        SUNNY     67  42  40 NW9       30.03F
$$

ILZ079-100>102-061800-
SOUTHWEST ILLINOIS

CITY           SKY/WX    TMP DP  RH WIND       PRES   REMARKS
ALTON          SUNNY     68  43  40 W12       30.07S
CAHOKIA*       SUNNY     72  37  28 VRB5      30.07S
SPARTA*        SUNNY     68  43  40 NW9       30.09S
$$

ILZ064>066-069>071-074>076-080>082-084>086-088>090-092>094-061800-
SOUTH-CENTRAL ILLINOIS

CITY           SKY/WX    TMP DP  RH WIND       PRES   REMARKS
CARBONDALE     SUNNY     70  42  36 NW7       30.08S
MARION         MOSUNNY   68  43  40 NW12      30.09S
MT. VERNON     SUNNY     66  41  39 N3        30.08S
SALEM*         CLOUDY    69  44  39 NW5       30.07S
$$

ILZ067-068-072-073-078-083-087-091-061800-
SOUTHEAST ILLINOIS

CITY           SKY/WX    TMP DP  RH WIND       PRES   REMARKS
LAWRENCEVILLE  SUNNY     69  43  38 N12G17    30.05F
FLORA*         SUNNY     69  42  37 NW9G17    30.06S
HARRISBURG*    SUNNY     68  46  44 NW8       30.07S
ROBINSON*      SUNNY     66  45  46 NW9       30.06S
$$

ABBREVIATIONS USED IN REMARKS
   TC - TEMPERATURE IN CELSIUS
  WCI - WIND CHILL INDEX
   HX - HEAT INDEX
  VSB - VISIBILITY
$$




USA.gov is the U.S. government's official web portal to all federal, state and local government web resources and services.